User: anonymous   Login
Location: Mentone
(34.5413°N, 85.5351°W)
Time: 16:13:04
(UTC-06:00)
Language:

Uosat F - Orbit

View from above orbital plane
View from above orbital plane
View from above satellite
View from above satellite

Ground track
Ground track

The orbit data is extracted from the following two-line orbital elements,

1 21575U 91050B   14327.06543988  .00000291  00000-0  10591-3 0  1752
2 21575 098.7190 306.0432 0007078 200.6343 224.4110 14.40486061226350
Epoch (UTC): 23 November 2014 01:34:14
Eccentricity: 0.0007078
inclination: 98.7190°
perigee height: 752 km
apogee height: 762 km
right ascension of ascending node: 306.0432°
argument of perigee: 200.6343°
revolutions per day: 14.40486061
mean anomaly at epoch: 224.4110°
orbit number at epoch: 22635

The dashed part of the orbit path shows where the satellite is in the earth's shadow,  

DLR